• en Belgique
  • Liste des pays
  • À 7 jours
  • Température de l'eau
  • Carte satellitaire
  • Carte météo
  • Widgets météo
  • user-avatar
    Se connecter

    Météo par heure à Privolzhskiy

    Ce jour, 19 Septembre, Mercredi

    Heure Température Précipitation Vent Pression Humidité
    00:00 +8°C° 0 mm 2 m/s 750 mmHg 88%
    01:00 +8°C° 0 mm 2 m/s 750 mmHg 88%
    02:00 +8°C° 0 mm 2 m/s 750 mmHg 88%
    03:00 +8°C° 0 mm 2 m/s 750 mmHg 88%
    04:00 +9°C° 0 mm 2 m/s 750 mmHg 88%
    05:00 +9°C° 0 mm 2 m/s 750 mmHg 88%
    06:00 +9°C° 0 mm 2 m/s 750 mmHg 88%
    07:00 +10°C° 0.3 mm 3 m/s 750 mmHg 89%
    08:00 +10°C° 0.3 mm 3 m/s 749 mmHg 90%
    09:00 +11°C° 0.3 mm 3 m/s 749 mmHg 92%
    10:00 +13°C° 0.1 mm 3 m/s 749 mmHg 87%
    11:00 +14°C° 0.1 mm 3 m/s 749 mmHg 82%
    12:00 +17°C° 0.1 mm 4 m/s 749 mmHg 77%
    13:00 +19°C° 0 mm 4 m/s 749 mmHg 71%
    14:00 +20°C° 0 mm 4 m/s 749 mmHg 66%
    15:00 +21°C° 0 mm 4 m/s 749 mmHg 60%
    16:00 +20°C° 0 mm 3 m/s 748 mmHg 65%
    17:00 +19°C° 0 mm 2 m/s 748 mmHg 70%
    18:00 +18°C° 0 mm 2 m/s 748 mmHg 74%
    19:00 +17°C° 0 mm 2 m/s 748 mmHg 78%
    20:00 +16°C° 0 mm 2 m/s 748 mmHg 82%
    21:00 +15°C° 0 mm 2 m/s 749 mmHg 86%
    22:00 +15°C° 0 mm 2 m/s 748 mmHg 88%
    23:00 +14°C° 0 mm 2 m/s 748 mmHg 90%

    Demain, 20 Septembre, Jeudi

    Heure Température Précipitation Vent Pression Humidité
    00:00 +13°C° 0 mm 3 m/s 748 mmHg 92%
    01:00 +13°C° 0 mm 3 m/s 748 mmHg 93%
    02:00 +13°C° 0 mm 3 m/s 748 mmHg 94%
    03:00 +13°C° 0 mm 3 m/s 748 mmHg 96%
    04:00 +13°C° 0 mm 3 m/s 748 mmHg 96%
    05:00 +13°C° 0 mm 3 m/s 748 mmHg 97%
    06:00 +13°C° 0 mm 3 m/s 748 mmHg 97%
    07:00 +14°C° 0 mm 3 m/s 748 mmHg 94%
    08:00 +15°C° 0 mm 4 m/s 749 mmHg 92%
    09:00 +17°C° 0 mm 4 m/s 749 mmHg 89%
    10:00 +17°C° 0 mm 4 m/s 749 mmHg 87%
    11:00 +17°C° 0 mm 4 m/s 750 mmHg 84%
    12:00 +17°C° 0 mm 4 m/s 750 mmHg 82%
    13:00 +18°C° 0 mm 4 m/s 750 mmHg 77%
    14:00 +19°C° 0 mm 3 m/s 750 mmHg 73%
    15:00 +20°C° 0 mm 3 m/s 751 mmHg 68%
    16:00 +19°C° 0 mm 3 m/s 751 mmHg 72%
    17:00 +18°C° 0 mm 2 m/s 751 mmHg 76%
    18:00 +18°C° 0 mm 2 m/s 751 mmHg 81%
    19:00 +17°C° 0 mm 2 m/s 751 mmHg 85%
    20:00 +16°C° 0 mm 2 m/s 751 mmHg 89%
    21:00 +15°C° 0 mm 2 m/s 751 mmHg 93%
    22:00 +14°C° 0 mm 1 m/s 752 mmHg 93%
    23:00 +14°C° 0 mm 1 m/s 752 mmHg 94%

    Après-demain, 21 Septembre, Vendredi

    Heure Température Précipitation Vent Pression Humidité
    00:00 +14°C° 0 mm 1 m/s 752 mmHg 94%
    01:00 +14°C° 0 mm 1 m/s 752 mmHg 95%
    02:00 +14°C° 0 mm 2 m/s 752 mmHg 95%
    03:00 +13°C° 0 mm 2 m/s 752 mmHg 95%
    04:00 +13°C° 0 mm 2 m/s 752 mmHg 95%
    05:00 +13°C° 0 mm 2 m/s 752 mmHg 96%
    06:00 +13°C° 0 mm 2 m/s 752 mmHg 96%
    07:00 +14°C° 0 mm 2 m/s 753 mmHg 91%
    08:00 +16°C° 0 mm 2 m/s 753 mmHg 86%
    09:00 +17°C° 0 mm 2 m/s 753 mmHg 82%
    10:00 +19°C° 0 mm 2 m/s 753 mmHg 75%
    11:00 +21°C° 0 mm 2 m/s 753 mmHg 68%
    12:00 +23°C° 0 mm 2 m/s 753 mmHg 61%
    13:00 +24°C° 0 mm 2 m/s 753 mmHg 60%
    14:00 +25°C° 0 mm 2 m/s 753 mmHg 58%
    15:00 +25°C° 0 mm 2 m/s 753 mmHg 56%
    16:00 +24°C° 0 mm 2 m/s 753 mmHg 62%
    17:00 +23°C° 0 mm 2 m/s 753 mmHg 68%
    18:00 +21°C° 0 mm 2 m/s 753 mmHg 74%
    19:00 +19°C° 0 mm 2 m/s 753 mmHg 78%
    20:00 +18°C° 0 mm 2 m/s 753 mmHg 81%
    21:00 +17°C° 0 mm 2 m/s 753 mmHg 85%
    22:00 +17°C° 0 mm 2 m/s 753 mmHg 87%
    23:00 +16°C° 0 mm 2 m/s 753 mmHg 88%

    22 Septembre, Samedi

    Heure Température Précipitation Vent Pression Humidité
    00:00 +16°C° 0 mm 2 m/s 753 mmHg 90%
    01:00 +16°C° 0 mm 2 m/s 753 mmHg 90%
    02:00 +15°C° 0 mm 2 m/s 753 mmHg 91%
    03:00 +15°C° 0 mm 2 m/s 753 mmHg 91%
    04:00 +15°C° 0 mm 2 m/s 753 mmHg 92%
    05:00 +14°C° 0 mm 2 m/s 753 mmHg 93%
    06:00 +14°C° 0 mm 2 m/s 753 mmHg 93%
    07:00 +14°C° 0 mm 3 m/s 752 mmHg 87%
    08:00 +17°C° 0 mm 3 m/s 752 mmHg 81%
    09:00 +18°C° 0 mm 3 m/s 752 mmHg 76%
    10:00 +20°C° 0 mm 4 m/s 752 mmHg 70%
    11:00 +22°C° 0 mm 4 m/s 751 mmHg 63%
    12:00 +23°C° 0 mm 5 m/s 751 mmHg 57%
    13:00 +25°C° 0 mm 5 m/s 751 mmHg 56%
    14:00 +25°C° 0 mm 5 m/s 750 mmHg 55%
    15:00 +26°C° 0 mm 5 m/s 750 mmHg 53%
    16:00 +25°C° 0 mm 5 m/s 750 mmHg 58%
    17:00 +23°C° 0 mm 4 m/s 749 mmHg 63%
    18:00 +21°C° 0 mm 3 m/s 749 mmHg 67%
    19:00 +21°C° 0 mm 4 m/s 749 mmHg 69%
    20:00 +20°C° 0 mm 4 m/s 748 mmHg 71%
    21:00 +19°C° 0 mm 4 m/s 748 mmHg 72%
    22:00 +19°C° 0 mm 4 m/s 748 mmHg 73%
    23:00 +18°C° 0 mm 4 m/s 748 mmHg 73%

    23 Septembre, Dimanche

    Heure Température Précipitation Vent Pression Humidité
    00:00 +18°C° 0 mm 4 m/s 747 mmHg 74%
    01:00 +18°C° 0 mm 4 m/s 747 mmHg 75%
    02:00 +17°C° 0 mm 4 m/s 747 mmHg 76%
    03:00 +17°C° 0 mm 4 m/s 747 mmHg 77%
    04:00 +17°C° 0.1 mm 4 m/s 746 mmHg 78%
    05:00 +15°C° 0.1 mm 4 m/s 746 mmHg 79%
    06:00 +15°C° 0.1 mm 4 m/s 746 mmHg 80%
    07:00 +17°C° 0.2 mm 4 m/s 746 mmHg 78%
    08:00 +17°C° 0.2 mm 4 m/s 745 mmHg 76%
    09:00 +18°C° 0.2 mm 4 m/s 745 mmHg 74%
    10:00 +19°C° 0 mm 4 m/s 745 mmHg 69%
    11:00 +21°C° 0 mm 5 m/s 745 mmHg 64%
    12:00 +22°C° 0 mm 5 m/s 745 mmHg 59%
    13:00 +21°C° 0.4 mm 5 m/s 745 mmHg 62%
    14:00 +20°C° 0.4 mm 5 m/s 745 mmHg 66%
    15:00 +20°C° 0.4 mm 5 m/s 745 mmHg 69%
    16:00 +18°C° 0.4 mm 4 m/s 745 mmHg 74%
    17:00 +15°C° 0.4 mm 4 m/s 745 mmHg 80%
    18:00 +14°C° 0.4 mm 4 m/s 746 mmHg 85%
    19:00 +12°C° 0.3 mm 4 m/s 746 mmHg 86%
    20:00 +11°C° 0.3 mm 3 m/s 746 mmHg 88%
    21:00 +10°C° 0.3 mm 3 m/s 747 mmHg 89%
    22:00 +10°C° 0 mm 3 m/s 747 mmHg 89%
    23:00 +10°C° 0 mm 2 m/s 747 mmHg 90%

    24 Septembre, Lundi

    Heure Température Précipitation Vent Pression Humidité
    00:00 +9°C° 0 mm 2 m/s 748 mmHg 90%
    01:00 +9°C° 0 mm 2 m/s 748 mmHg 91%
    02:00 +9°C° 0 mm 2 m/s 748 mmHg 91%
    03:00 +10°C° 0 mm 1 m/s 749 mmHg 92%
    04:00 +10°C° 0 mm 1 m/s 749 mmHg 92%
    05:00 +9°C° 0 mm 1 m/s 749 mmHg 93%
    06:00 +9°C° 0 mm 1 m/s 749 mmHg 94%
    07:00 +10°C° 0 mm 1 m/s 749 mmHg 90%
    08:00 +11°C° 0 mm 1 m/s 750 mmHg 86%
    09:00 +12°C° 0 mm 1 m/s 750 mmHg 82%
    10:00 +13°C° 0 mm 1 m/s 750 mmHg 75%
    11:00 +15°C° 0 mm 1 m/s 750 mmHg 68%
    12:00 +16°C° 0 mm 1 m/s 751 mmHg 61%
    13:00 +16°C° 0 mm 2 m/s 750 mmHg 58%
    14:00 +17°C° 0 mm 2 m/s 750 mmHg 55%
    15:00 +17°C° 0 mm 2 m/s 750 mmHg 53%
    16:00 +16°C° 0 mm 2 m/s 750 mmHg 59%
    17:00 +15°C° 0 mm 2 m/s 750 mmHg 66%
    18:00 +14°C° 0 mm 2 m/s 750 mmHg 72%
    19:00 +13°C° 0 mm 2 m/s 750 mmHg 76%
    20:00 +13°C° 0 mm 2 m/s 750 mmHg 80%
    21:00 +12°C° 0 mm 2 m/s 750 mmHg 85%
    22:00 +12°C° 0 mm 2 m/s 749 mmHg 88%
    23:00 +12°C° 0 mm 2 m/s 749 mmHg 90%
    Voir plus